Weather History for Ciudad Victoria, Mexico

Change the Weather History Date:

Sunday, December 9, 2012

  Actual Average Record
Temperature  
Mean Temperature 72 °F -  
Max Temperature 85 °F 74 °F 91 °F (1997)
Min Temperature 58 °F 52 °F 37 °F (2010)
Cooling Degree Days 6    
Growing Degree Days 22 (Base 50)    
Moisture  
Dew Point 65 °F    
Average Humidity 71    
Maximum Humidity 99    
Minimum Humidity 49    
Precipitation  
Precipitation 0.00 in - - ()
Sea Level Pressure  
Sea Level Pressure 29.84 in    
Wind  
Wind Speed 6 mph ()    
Max Wind Speed 17 mph    
Max Gust Speed 18 mph    
Visibility 4.9 miles    
Events      
Averages and records for this station are not official NWS values.
T = Trace of Precipitation, MM = Missing Value Source: Averaged Metar Reports

Daily Weather History Graph

Daily Weather History Graph

Search for Another Location

Airport:

Trip Planner

Search our weather history database for the weather conditions in past years. The results will help you decide how hot, cold, wet, or windy it might be!

Date:

Astronomy

Dec. 09, 2012 Rise Set
Actual Time 7:07 AM CST 5:49 PM CST
Civil Twilight 6:42 AM CST 6:14 PM CST
Nautical Twilight 6:14 AM CST 6:42 PM CST
Astronomical Twilight 5:46 AM CST 7:10 PM CST
Moon 3:01 AM CST (12/9) 2:41 PM CST (12/9)
Length of Visible Light 11h 31m
Length of Day
10h 42m
Waning Crescent, 18% of the Moon is Illuminated
Dec 9
Waning Crescent
Dec 13
New
Dec 19
First Quarter
Dec 28
Full
Jan 4
Last Quarter

Hourly Weather History & Observations

Time (CST) Temp. Heat Index Dew Point Humidity Pressure Visibility Wind Dir Wind Speed Gust Speed Precip Events Conditions
2:50 AM 62 °F - 62 °F 99% 29.86 in 4 mi Calm Calm - -  
6:14 AM 69.8 °F - 66.2 °F 88% 29.86 in 4.0 mi SE 10.4 mph - N/A   Clear
6:41 AM 69.8 °F - 66.2 °F 88% 29.85 in 4.0 mi SSE 10.4 mph - N/A   Clear
7:09 AM 69.8 °F - 66.2 °F 88% 29.85 in 1.5 mi SE 11.5 mph - N/A   Scattered Clouds
7:40 AM 69.8 °F - 66.2 °F 88% 29.86 in 1.0 mi South 6.9 mph - N/A   Scattered Clouds
8:45 AM 65 °F - 65 °F 99% 29.93 in 6 mi Calm Calm - -  
8:48 AM 71.6 °F - 66.2 °F 83% 29.88 in 3.0 mi SE 13.8 mph - N/A   Partly Cloudy
9:43 AM 77.0 °F - 64.4 °F 65% 29.89 in 4.0 mi SSE 5.8 mph 17.3 mph N/A   Scattered Clouds
10:44 AM 78.8 °F - 62.6 °F 57% 29.88 in 4.0 mi South 17.3 mph - N/A   Mostly Cloudy
11:44 AM 78.8 °F - 64.4 °F 61% 29.87 in 5.0 mi SSE 6.9 mph 18.4 mph N/A   Mostly Cloudy
11:50 AM 80 °F - 64 °F 49% 29.91 in 6 mi NNW 2.2 mph - -   Clear
12:45 PM 80.6 °F 82.3 °F 64.4 °F 58% 29.82 in 5.0 mi SSE 16.1 mph - N/A   Mostly Cloudy
1:42 PM 80.6 °F 81.8 °F 62.6 °F 54% 29.80 in 5.0 mi SSE 11.5 mph - N/A   Mostly Cloudy
2:40 PM 82.4 °F 83.4 °F 62.6 °F 51% 29.79 in 5.0 mi South 9.2 mph - N/A   Mostly Cloudy
2:50 PM 83 °F - 67 °F 50% 29.82 in 6 mi North 2.2 mph - -   Mostly Cloudy
3:40 PM 82.4 °F 83.4 °F 62.6 °F 51% 29.77 in 8.0 mi South 13.8 mph - N/A   Mostly Cloudy
4:40 PM 80.6 °F 81.8 °F 62.6 °F 54% 29.77 in 8.0 mi South 6.9 mph - N/A   Mostly Cloudy
5:41 PM 78.8 °F - 64.4 °F 61% 29.80 in 8.0 mi NW 4.6 mph - N/A   Overcast
5:50 PM 77 °F - 66 °F 61% 29.82 in 6 mi North 2.2 mph - -   Clear
6:40 PM 73.4 °F - 64.4 °F 73% 29.81 in 6.0 mi West 4.6 mph - N/A   Mostly Cloudy
7:46 PM 71.6 °F - 64.4 °F 78% 29.81 in 6.0 mi WSW 5.8 mph - N/A   Scattered Clouds
8:42 PM 69.8 °F - 62.6 °F 78% 29.83 in 4.0 mi West 4.6 mph - N/A   Clear
8:45 PM 74 °F - 69 °F 79% 29.84 in 4 mi SSW 2.2 mph - -  
11:45 PM 67 °F - 64 °F 85% 29.88 in 4 mi Calm Calm - -